User: anonymous   Login
Location: Unspecified
(0.0000°N, 0.0000°E)
Time: 15:31:55
(UTC+00:00)
Language:

BEESAT 2 - Orbit

View from above orbital plane
View from above orbital plane
View from above satellite
View from above satellite

Ground track
Ground track

The orbit data is extracted from the following two-line orbital elements,

1 39136U 13015G   17323.86417963 +.00001423 +00000-0 +83912-4 0  9999
2 39136 064.8708 096.6461 0032802 260.3591 099.3828 15.15625229252477
Epoch (UTC): 19 November 2017 20:44:25
Eccentricity: 0.0032802
inclination: 64.8708°
perigee height: 496 km
apogee height: 542 km
right ascension of ascending node: 96.6461°
argument of perigee: 260.3591°
revolutions per day: 15.15625229
mean anomaly at epoch: 99.3828°
orbit number at epoch: 25247

The dashed part of the orbit path shows where the satellite is in the earth's shadow,  

DLR